Home > Time Zones > World Clock > Weather > Norway > Oslo > Past weeks

Flag for Norway Weather past 2 weeks in Oslo, Norway

Now
46 °F

Partly sunny.


Feels Like: 38 °F
Forecast: 35 / 64 °F
Wind: 25 mph from Southwest

Location: Oslo / Fornebu


UV Index: 0 (Low)

Visibility: N/A


Pressure: 30.21 "Hg

Humidity: 76%

Dew point: 39 °F

Location of OsloLocation

Historic Weather in Oslo

°F

Oslo temperature yesterday

Maximum temperature yesterday: 45 °F (at 12:20 PM)
Minimum temperature yesterday: 41 °F (at 12:20 AM)
Average temperature yesterday: 43 °F

Past Weeks' High & Low Weather Summary

 TemperatureHumidityPressure
High50 °F (Apr 7, 2:50 PM)100% (Apr 5, 4:20 PM)30.33 "Hg (Apr 5, 4:20 PM)
Low37 °F (Apr 14, 1:20 PM)49% (Apr 18, 3:20 AM)29.12 "Hg (Apr 12, 7:20 PM)
Average45 °F83%29.74 "Hg
* Reported Apr 4 2:20 PM — Apr 19 2:50 PM, Oslo, Weather by CustomWeather, © 2014

Note: Actual official high and low records may vary slightly from our data, if they occured in-between our weather recording intervals... More about our weather records

Advertising

Historic Weather Conditions — Data for Previous 24 hours

 ConditionsComfort  
Time TempWeatherWind HumidityBarometerVisibility
2:50 PM
Apr 19
46 °FScattered clouds.30 mph82%30.21 "HgN/A
2:20 PM48 °FPartly sunny.32 mph76%30.18 "HgN/A
1:50 PM48 °FPartly sunny.31 mph76%30.18 "HgN/A
1:20 PM48 °FPartly sunny.30 mph76%30.18 "HgN/A
12:50 PM48 °FOvercast.29 mph76%30.18 "HgN/A
12:20 PM48 °FPartly sunny.30 mph76%30.18 "HgN/A
11:50 AM46 °FPartly sunny.28 mph76%30.18 "HgN/A
11:20 AM46 °FBroken clouds.29 mph76%30.18 "HgN/A
10:50 AM46 °FPartly sunny.28 mph76%30.18 "HgN/A
10:20 AM48 °FBroken clouds.29 mph66%30.18 "HgN/A
9:50 AM46 °FPassing clouds.29 mph71%30.15 "HgN/A
9:20 AM46 °FPartly sunny.29 mph76%30.15 "HgN/A
8:50 AM46 °FPartly sunny.30 mph76%30.15 "HgN/A
8:20 AM46 °FBroken clouds.28 mph82%30.15 "HgN/A
7:50 AM46 °FOvercast.26 mph82%30.15 "HgN/A
7:20 AM46 °FOvercast.26 mph82%30.12 "HgN/A
6:50 AM45 °FOvercast.25 mph87%30.12 "HgN/A
6:20 AM45 °FOvercast.26 mph87%30.12 "HgN/A
5:50 AM45 °FOvercast.26 mph87%30.12 "HgN/A
4:50 AM46 °FOvercast.25 mph82%30.12 "HgN/A
4:20 AM45 °FOvercast.26 mph87%30.12 "HgN/A
3:50 AM46 °FOvercast.29 mph82%30.12 "HgN/A
3:20 AM45 °FLight rain. Overcast.30 mph87%30.12 "HgN/A
2:50 AM45 °FOvercast.29 mph87%30.12 "HgN/A
2:20 AM45 °FOvercast.31 mph87%30.09 "HgN/A
1:50 AM45 °FOvercast.32 mph87%30.09 "HgN/A
1:20 AM46 °FOvercast.32 mph82%30.09 "HgN/A
12:50 AM46 °FOvercast.31 mph82%30.09 "HgN/A
12:20 AM45 °FSprinkles. Overcast.29 mph87%30.09 "HgN/A
11:50 PM
Apr 18
45 °FOvercast.30 mph87%30.09 "HgN/A
10:50 PM45 °FOvercast.29 mph87%30.09 "HgN/A
10:20 PM45 °FOvercast.30 mph87%30.09 "HgN/A
9:50 PM45 °FOvercast.30 mph87%30.09 "HgN/A
9:20 PM45 °FPartly sunny.31 mph87%30.07 "HgN/A
8:50 PM45 °FOvercast.29 mph87%30.07 "HgN/A
8:20 PM45 °FOvercast.29 mph87%30.07 "HgN/A
7:50 PM45 °FPartly sunny.28 mph81%30.07 "HgN/A
7:20 PM45 °FPartly sunny.28 mph81%30.07 "HgN/A
6:50 PM45 °FOvercast.28 mph76%30.07 "HgN/A
6:20 PM45 °FMore clouds than sun.23 mph76%30.09 "HgN/A
5:50 PM45 °FOvercast.24 mph76%30.07 "HgN/A
5:20 PM45 °FPartly sunny.22 mph76%30.07 "HgN/A
4:50 PM45 °FPassing clouds.21 mph71%30.09 "HgN/A
4:20 PM43 °FQuite cool.20 mph76%30.09 "HgN/A
Weather by CustomWeather, © 2014

See weather overview